AirNav   SIMCOM
 
 1020 users online  

6FL7 Timmer Heliport
Lake Wales, Florida, USA


FAA INFORMATION EFFECTIVE 14 SEPTEMBER 2017

Location

FAA Identifier: 6FL7
Lat/Long: 27-50-04.8100N / 081-26-15.1200W
27-50.080167N / 081-26.252000W
27.8346694 / -81.4375333
(estimated)
Elevation: 104 ft. / 32 m (estimated)
From city: 9 miles NW of LAKE WALES, FL
Time zone: UTC -4 (UTC -5 during Standard Time)
Zip code: 33859

Heliport Operations

Heliport use: Private use. Permission required prior to landing
Activation date: 11/2005
Control tower: no
ARTCC: MIAMI CENTER
FSS: SAINT PETERSBURG FLIGHT SERVICE STATION
Attendance: UNATNDD
Wind indicator: yes
Segmented circle: no

Heliport Communications

WX AWOS-3 at X07 (10 nm W): 124.225 (863-678-1334)
WX AWOS-3 at AVO (15 nm S): 118.725 (863-453-4223)
WX AWOS-3 at BOW (19 nm W): 123.775 (863-533-9004)

Nearby radio navigation aids

VOR radial/distance  VOR name  Freq  Var
LALr106/31.9LAKELAND VORTAC116.0001E

Heliport Services

Runway Information

Helipad H1

Dimensions: 465 x 160 ft. / 142 x 49 m
Surface: turf
Traffic pattern: leftleft

Heliport Ownership and Management from official FAA records

Ownership: Privately-owned
Owner: WILLIAM TIMMER
3025 SCRUB OAK LANE
LAKE WALES, FL 33898
Phone 863-207-0441
Manager: WILLIAM TIMMER
3025 SCRUB OAK LANE
LAKE WALES, FL 33898
Phone 863-207-0441

Heliport Operational Statistics

Aircraft based on the field: 1
Helicopters: 1
    

Additional Remarks

LAND TO THE EAST.
35 FT TREES LCTD 465 FT FM HELIPAD AT 093 AND 273 DEGS.
OWNER DESIRES HELIPORT NOT BE CHARTED.

Instrument Procedures

There are no published instrument procedures at 6FL7.

Some nearby airports with instrument procedures:

X07 - Lake Wales Municipal Airport (10 nm W)
KAVO - Avon Park Executive Airport (15 nm S)
KBOW - Bartow Municipal Airport (19 nm W)
KGIF - Winter Haven's Gilbert Airport (22 nm NW)
KSEF - Sebring Regional Airport (23 nm S)
 
Loc | Ops | Rwys | IFR | FBO | Links
Com | Nav | Svcs | Stats | Notes

Reliance Aviation
AirBoss

 
Area around 6FL7 (Timmer Heliport)
 
Road maps at: MapQuest Bing Google
 
Aerial photo
No photo
 
Sectional chart

 
Airport distance calculator
Flying to Timmer Heliport? Find the distance to fly.

From to 6FL7

Sunrise and sunset
Times for 25-Sep-2017
 Local
(UTC-4)
 Zulu
(UTC)
Morning civil twilight06:5310:53
Sunrise07:1711:17
Sunset19:1823:18
Evening civil twilight19:4223:42

Current date and time
Zulu (UTC)  26-Sep-2017 00:16:00
Local (UTC-4)  25-Sep-2017 20:16:00
 
METAR
KBOW 
18nm W 
252055Z E36003KT 10SM SKC
KGIF 
22nm NW 
252353Z AUTO 00000KT 10SM OVC060 30/21 A2985 RMK AO2 SLP106 T03000211 10333 20294 53006
KSEF 
23nm S 
252355Z AUTO 00000KT 10SM CLR 30/22 A2984 RMK AO2 T03030222 10340 20302
KISM 
27nm N 
252356Z 32004KT 10SM CLR 29/21 A2985 RMK AO2 SLP108 T02890211 10333 20289 53004
KLAL 
32nm W 
252350Z VRB04KT 10SM SCT050 29/21 A2985
KMCO 
35nm N 
252353Z 07011KT 10SM SCT050 BKN300 28/24 A2984 RMK AO2 SLP103 T02780239 10328 20278 53007 $
TAF
KISM 
27nm N 
251732Z 2518/2618 35006KT P6SM SCT040 FM252200 04007KT P6SM SCT040 SCT070 FM260200 VRB03KT P6SM FEW020 FM261400 29005KT P6SM FEW025
KLAL 
32nm W 
251727Z 2518/2618 31004KT P6SM SCT035 SCT090 FM260400 VRB03KT P6SM SCT040 FM260800 VRB03KT P6SM FEW040 FEW200
NOTAMs
Click for the latest NOTAMs
NOTAMs are issued by the DoD/FAA and will open in a separate window not controlled by AirNav.

 

 
 

Would you like to see your business listed on this page?

 If your business provides an interesting product or service to pilots, flight crews, aircraft, or users of the Timmer Heliport, you should consider listing it here.  To start the listing process, click on the button below
 
Add a business
 

Other Pages about Timmer Heliport

Update a link
 
Copyright © AirNav, LLC. All rights reserved. Privacy Policy  Contact